User: anonymous   Login
Location: Unspecified
(0.0000°N, 0.0000°E)
Time: 10:04:26
(UTC+00:00)
Language:

STARLINK-30533 - Orbit

View from above orbital plane
View from above orbital plane
View from above satellite
View from above satellite

Ground track
Ground track

The orbit is defined by the following mean orbital elements,

1 58037U          26144.46347196 +.00000000 +00000-0 +64086-2 0 00009
2 58037  53.1582 176.2398 0003416 182.2164 177.8823 15.30553398    01
Epoch (UTC): 24 May 2026 11:07:23
Eccentricity: 0.0003416
inclination: 53.1582°
perigee height: 472 km
apogee height: 477 km
right ascension of ascending node: 176.2398°
argument of perigee: 182.2164°
revolutions per day: 15.30553398
mean anomaly at epoch: 177.8823°

The dashed part of the orbit path shows where the satellite is in the earth's shadow,  

DLR